Location: Stockholm
(59.3293°N, 18.0686°E)
Time: 11:27:25
(UTC+01:00)

OTV 5 (USA 277) - Visible Passes

Search period start: 19 February 2019 00:00
Search period end: 01 March 2019 00:00
Orbit: 342 x 346 km, 54.5° (Epoch: 17 February)

Date Brightness Start Highest point End Pass type
(mag) Time Alt. Az. Time Alt. Az. Time Alt. Az.
26 Feb ? 19:16:50 10° S 19:17:09 11° S 19:17:09 11° S visible
27 Feb ? 19:39:35 10° SW 19:40:19 15° SSW 19:40:19 15° SSW visible
28 Feb ? 18:29:19 10° S 18:31:03 15° SSE 18:31:57 13° SE visible
28 Feb ? 20:02:47 10° SW 20:03:23 14° SW 20:03:23 14° SW visible
